Regional Weather Roundup
Issued by NWS Wakefield, VA

Home | Current Version | Previous Version | Graphics & Text | Print | Product List | Glossary On
Versions: 1 2 3 4 5 6 7 8 9 10 11 12 13 14 15 16 17 18 19 20 21 22 23 24 25 26 27 28 29 30 31 32 33 34 35 36 37 38 39 40 41 42 43 44 45 46 47 48 49 50
000
ASUS41 KAKQ 260315
RWRAKQ

REGIONAL WEATHER ROUNDUP
NATIONAL WEATHER SERVICE WAKEFIELD VA
1100 PM EDT SUN JUN 25 2017

Note: "fair" indicates few or no clouds below 12,000 feet with no
significant weather and/or obstructions to visibility. * = Denotes
station may not report precipitation (e.g., rain,snow,etc.),
thunder or fog.

VAZ042-051-052>054-056-260400-
NORTHERN VIRGINIA

CITY           SKY/WX    TMP DP  RH WIND       PRES   REMARKS
WASH NATIONAL  PTCLDY    76  46  34 VRB5      30.04R
DULLES         PTCLDY    69  46  43 W6        30.06R
FORT BELVOIR   CLEAR     65  52  62 CALM      30.04R
QUANTICO       CLEAR     70  59  68 NW7       30.05S
FREDERICKSBRG* CLEAR     69  56  61 CALM      30.04S
STAFFORD*      CLEAR     60  57  89 NW5       30.10R
WARRENTON      CLEAR     59  51  76 CALM      30.07R
CULPEPER*      CLEAR     62  53  71 NW3       30.08R
MANASSAS*      CLEAR     63  54  72 CALM      30.06R
LEESBURG*      CLEAR    N/A N/A N/A W6        30.07S HAZE
WINCHESTER     CLEAR     66  45  45 W5        30.08S
FRONT ROYAL*   CLEAR     63  46  55 S6        30.08R
LURAY*         CLEAR     63  52  67 CALM      30.10S
$$

VAZ048-049-060>072-079>083-260400-
CENTRAL AND SOUTH CENTRAL VIRGINIA

CITY           SKY/WX    TMP DP  RH WIND       PRES   REMARKS
RICHMOND       PTCLDY    75  58  55 W6        30.05R
CHESTERFIELD*  FAIR      70  60  70 W3        30.06
PETERSBURG*    PTCLDY    65  58  79 CALM      30.06S
HANOVER        CLEAR     67  60  78 NW3       30.07R
TAPPAHANNOCK*  CLEAR     72  53  52 CALM      30.05S
QUINTON*       FAIR      67  67  99 W5        30.04S
CHARLOTTSVILLE CLEAR     67  50  54 W3        30.09R
GORDONSVILLE*  CLEAR     61  54  76 NW3       30.08R
ORANGE*        CLEAR     59  52  77 CALM      30.08R
LOUISA*        CLEAR     61  57  88 CALM      30.07R
BUMPASS*       FAIR      65  63  93 CALM      30.07R
FARMVILLE*     CLEAR     66  54  65 CALM      30.08R
CREWE*         FAIR      69  55  61 CALM      30.08R
FORT PICKETT*  FAIR      67  56  68 W5        30.08R
CHASE CITY*    FAIR      65  65  99 CALM      30.10R
CLARKSVILLE*   FAIR      68  64  88 CALM      30.09S
SOUTH HILL*    CLEAR     68  64  85 CALM      30.14S
LAWRENCEVILLE* FAIR      64  61  88 CALM      30.07S
EMPORIA*       CLEAR     64  59  82 CALM      30.08F
$$

VAZ088>098-260400-
SOUTHEAST VIRGINIA

CITY           SKY/WX    TMP DP  RH WIND       PRES   REMARKS
NORFOLK        CLOUDY    81  66  60 W5        30.04R
VIRGINIA BEACH CLOUDY    74  66  76 SW6       30.03S
NORFOLK NAVAL  MOCLDY    80  60  50 NW10      30.05S
WEST POINT*    PTCLDY    69  63  80 CALM      30.06S
SALUDA*        FAIR      71  66  84 CALM      30.04S
NEWPORT NEWS   PTCLDY    75  61  61 NW3       30.04S
LANGLEY AFB    PTCLDY    75  63  64 W6        30.03S
FORT EUSTIS    PTCLDY    77  63  62 W8        30.02S
WILLIAMSBURG*  CLEAR     73  64  73 CALM      30.06R
HR EXEC AP*    FAIR      70  63  78 CALM      30.03S
FRANKLIN*      PTCLDY    72  63  73 W3        30.06S
US460-WAKEFLD  CLEAR     69  63  81 CALM      30.05S
$$

VAZ020-022-025-037-045-260400-
WEST CENTRAL AND SOUTHWEST VIRGINIA

CITY           SKY/WX    TMP DP  RH WIND       PRES   REMARKS
STAUNTON*      CLEAR     59  49  70 CALM      30.14R
WAYNESBORO*    CLEAR     64  46  52 W5        30.13S
HOT SPRINGS VA CLEAR     59  36  41 CALM      30.22S
LYNCHBURG      CLEAR     65  48  54 NW3       30.13R
DANVILLE       CLEAR     64  64 100 NW3       30.12R
SOUTH BOSTON*  FAIR      64  62  95 CALM      30.10S
MARTINSVILLE   CLEAR     58  57  96 CALM      30.17S
ROANOKE        CLEAR     62  49  62 W5        30.17R
BLACKSBURG     CLEAR     58  48  70 CALM      30.22S
DUBLIN*        CLEAR     60  44  54 SW5       30.21R
MARION*        CLEAR     56  48  74 CALM      30.25S
HILLSVILLE*    CLEAR     62  39  43 CALM      30.21S
RICHLANDS*     FAIR      62  17  17 W3        30.24R
WISE*          CLEAR     55  46  71 CALM      30.25R
ABINGDON*      CLEAR     60  52  73 CALM      30.22R
$$

MDZ021>025-VAZ099-100-260400-
SOUTHERN MARYLAND AND THE DELMARVA PENINSULA

CITY           SKY/WX    TMP DP  RH WIND       PRES   REMARKS
PATUXENT RIVER PTCLDY    76  53  44 NW6       30.03R
BAY BRIDGE APT CLOUDY    77  54  44 NW7       30.03R
LEONARDTOWN    MOCLDY    70  50  49 W3        30.06R
DOVER          PTCLDY    73  57  56 W6        30.00R
GEORGETOWN     CLOUDY    79  56  45 VRB5      30.02S
EASTON         CLEAR     74  52  45 N5        30.06S
CAMBRIDGE      CLEAR     77  50  38 NW10      30.02S
SALISBURY      CLOUDY    72  55  55 NW14G31   30.03R
OCEAN CITY     CLOUDY    72  68  87 CALM      30.01S
WALLOPS ISLAND CLOUDY    75  64  68 SW7       30.03R
ACCOMACK*      CLOUDY    71  67  87 CALM      30.03S
$$

NCZ012>017-030>032-260400-
NORTH CENTRAL AND EASTERN NORTH CAROLINA

CITY           SKY/WX    TMP DP  RH WIND       PRES   REMARKS
ROANOKE RAPIDS FAIR      68  64  88 CALM      30.08S
RALEIGH        CLOUDY    73  66  78 CALM      30.10S
ELIZABETH CITY CLOUDY    75  70  84 W8        30.04F
AHOSKIE*         N/A     71  66  83 CALM      30.07S
EDENTON*       CLOUDY    78  66  65 CALM      30.06S
CURRITUCK*     CLOUDY    76  76 100 SW5       30.05S
KILL DEVIL HLS CLOUDY    75  74  96 CALM      30.03S
MANTEO         CLOUDY    79  74  83 NW3       30.04S
CAPE HATTERAS  CLOUDY    79  75  87 SW8       30.05S
TARBORO*       NOT AVBL
GOLDSBORO      CLOUDY    78  67  68 NW6       30.05F
WASHINGTON     CLOUDY   N/A N/A N/A CALM      30.06F
GREENVILLE     PTCLDY    77  64  65 NW3       30.08F
NEW BERN       CLOUDY    75  75 100 CALM      30.07S
WILMINGTON     CLOUDY    73  71  93 NW6       30.07S
$$

VAZ048-260400-
ELSEWHERE

CITY           SKY/WX    TMP DP  RH WIND       PRES   REMARKS
HARRISBURG PA  MOCLDY    74  49  41 W9        30.01S
BALTIMORE      PTCLDY    68  51  54 W6        30.03R
ANNAPOLIS      MOCLDY    72  50  45 W3        30.02R
ANDREWS AFB    PTCLDY    73  47  39 W3        30.04R
PHILADELPHIA   PTCLDY    77  49  37 W10       30.00R
HENDERSON NC   CLOUDY    65  60  86 W3        30.10S
GREENSBORO     PTCLDY    69  62  78 CALM      30.13R
ROCKY MOUNT    CLOUDY    75  64  68 CALM      30.08S
$$

VAZ100-260400-
MARINE

STATION/POSITION TIME  TEMP    WIND        PRES    WAVE   SWELL
                       AIR SEA DIR/SP/G            HT/PER HT/PER
                 (UTC) (F)     (DEG/KT/KT) (MB)    (FT/S) (FT/S)
BRANDYWINE LGT   0242   77     310/  9/ 12 1016.4S
CAPE MAY NJ      0248   70 69  230/  7/  8 1016.0R
LEWES DE         0242   77 73  280/  5/  7 1016.2R
15NM E FENWICK I 0250   71 69  220/  8/  8 1016.4S   2/ 5   2/ 5
OCEAN-CITY-INLET 0242   71 66  270/  3/  3 1016.6R
WACHAPREAGUE VA  0242   76 80  250/  3/  3 1016.6R
THOMAS POINT MD  0300   77 79  310/  9/ 11   N/A
GOOSES REEF MD   0300   79 79  350/  8/ 10 1017.6    1/ 2
COVE POINT MD    0242   79     350/ 13/ 16 1017.4R
SOLOMONS ISLAND  0242   77 79  340/  4/  6   N/A
BISHOPS HEAD MD  0242   79 83  330/  8/ 13 1017.0R
PINEY POINT MD   0248          360/  9/ 10   N/A
POTOMAC MD       0300   79 79  360/ 10/ 12 1016.0    1/ 2
CAMBRIDGE MD     0242   78 82              1017.2S
LEWISETTA VA     0242   77 80  340/  6/  7 1017.1R
RAPPAHANNOCK LGT 0248          250/  9/ 10 1017.6R
STINGRAY PT      0300   79 79  310/ 10/ 14 1016.9    0
YORK RVR RNG VA  0242   79     300/  7/  8 1017.4R
YORKTOWN VA      0242   77 79  280/  2/  3 1016.9S
JAMESTOWN VA     0300   78 83  270/  8/ 10   N/A     0
DOMINION TERM VA 0242   79     310/ 10/ 12 1017.3R
KIPTOPEKE VA     0242      78  200/  5/  6   N/A
CHES BAY BRIDGE  0242   78 76  230/  7/  8 1016.9R
CAPE HENRY VA    0242   78     200/  5/  6   N/A
WILLOUBY STN VA  0242   80     300/ 11/ 13 1017.2R
S CRANEY ISL VA  0242   78     310/  3/  6 1017.1R
CAPE HENRY BUOY  0230      75                N/A     2/ 6
1ST LANDING BUOY 0300   78 74              1016.9    1/ 3
CAPE CHARLES BUO 0251      74                N/A     2/ 6
64NM E OF VA BCH 0250   74 75  220/  4/  4 1017.4R   3/ 9   2/ 9
DUCK PIER NC     0242   74 62  140/  4/  5 1016.8R
44100 DUCK FRF   0205      73                N/A     2/ 8
OREGON INLET NC  0242   81 84  270/  5/  7 1017.0R
HATTERAS NC      0242   78 80  230/  6/  9 1017.3S
DIAMOND SHLS NC  0250   79 80  240/ 12/ 14 1017.4R   3/ 8   2/ 8
CAPE LOOKOUT NC  0300   76     250/  5/  6 1017.2F
$$



USA.gov is the U.S. government's official web portal to all federal, state and local government web resources and services.